Dewpoint
63 63 63 63 64 64 64 64 64 65 64 63 63 62 62 63 64 64 64 63 62 62 61 62 62 62 61 63 61 59 59 62 57 61 62 62 61 61 62 63 62 61 60
62 62 63 63 63 64 64 64 63 62 62 61 62 61 62 62 64 63 62 62 62 60 59 60 59 61 62 62 61 61 59 63 59 57 59 59 59 60 60 60 59 60 59
61 61 63 63 63 64 63 63 62 62 62 62 62 62 61 62 62 62 61 61 61 60 59 59 60 61 62 61 61 60 60 63 60 58 58 58 58 58 58 58 58 58 58
60 60 62 62 62 63 63 62 62 62 62 62 62 61 61 61 61 62 61 62 61 61 61 60 60 61 61 59 60 61 61 62 60 58 57 57 56 57 57 55 55 55 54
59 59 61 62 62 62 62 62 62 62 61 61 62 62 61 61 57 61 61 61 61 61 61 61 61 61 59 60 60 61 61 59 58 57 56 56 55 55 54 54 53 53 52
58 58 61 61 61 62 62 62 62 61 62 62 61 60 61 57 47 48 57 63 62 61 60 61 60 59 58 55 56 56 60 59 58 57 56 55 56 55 54 53 52 52 49
58 59 60 61 61 61 61 61 61 63 64 62 62 60 60 60 46 47 52 63 62 61 61 60 60 59 58 59 53 53 53 52 56 59 57 56 55 55 55 54 54 53 52
58 58 59 59 60 60 60 61 63 64 63 62 61 61 61 58 47 48 51 62 62 62 61 61 60 60 59 59 59 59 59 59 59 59 59 58 57 57 57 56 55 52 52
57 58 58 59 60 60 60 62 64 62 62 62 61 60 62 59 47 47 56 61 61 61 61 60 60 58 49 50 59 59 59 57 51 50 50 48 47 48 52 55 53 52 51
57 57 59 59 60 60 61 62 63 63 62 60 60 61 55 59 46 48 57 60 60 59 59 58 52 55 45 48 58 58 56 55 55 55 54 51 51 50 50 56 53 51 50
58 58 59 60 61 62 62 62 62 61 61 61 59 61 59 58 55 46 50 61 60 59 57 56 52 45 45 47 51 58 56 57 53 56 55 54 55 56 56 56 56 52 52
58 58 59 61 59 60 62 62 62 62 60 59 59 59 58 59 49 46 47 51 54 59 57 55 50 44 44 45 51 45 46 52 55 55 54 54 55 55 55 55 56 56 56
59 59 60 61 61 61 61 61 60 61 59 57 57 57 57 59 56 44 45 46 49 57 56 50 43 43 43 45 44 45 49 55 55 54 54 54 55 56 56 56 56 57 56
59 60 60 61 61 61 60 60 59 59 58 57 56 55 56 58 58 57 55 54 48 50 48 49 49 49 49 49 51 53 56 56 55 55 55 56 57 56 54 54 52 52 52
60 60 60 60 61 61 60 59 59 61 58 57 58 57 57 57 58 54 55 57 57 52 53 55 55 54 54 55 56 56 56 56 56 56 55 56 55 54 54 54 53 53 51
59 59 59 59 59 59 58 57 42 47 46 47 48 54 57 49 45 45 44 43 44 45 56 56 55 55 55 55 55 55 56 55 56 56 56 56 55 55 55 53 52 52 51
59 60 59 58 59 59 59 58 57 52 41 41 43 43 46 48 41 41 42 42 42 49 57 56 56 56 55 55 55 56 55 56 57 56 56 56 56 56 54 53 52 51 49
60 52 59 58 59 58 58 58 57 57 58 58 44 46 41 40 40 40 41 46 56 55 57 57 57 57 57 56 55 56 56 57 57 56 56 56 56 55 54 53 53 53 53
58 57 58 59 58 57 58 58 57 57 57 58 54 46 40 38 39 40 43 57 55 56 57 57 57 58 57 57 57 57 57 57 56 57 56 56 56 54 53 54 54 47 49
56 51 54 59 59 58 58 57 57 57 58 56 58 57 49 49 52 51 55 57 57 56 56 56 57 57 58 57 57 56 57 57 57 57 56 56 55 54 52 52 53 53 55
54 57 50 58 58 57 57 57 55 56 56 55 58 56 45 56 57 55 55 57 57 56 56 56 56 57 57 57 56 56 56 57 57 57 57 56 56 55 56 55 55 55 55
55 55 57 56 57 57 57 57 57 55 55 55 56 53 39 56 56 57 57 57 58 58 57 57 56 57 57 57 57 57 57 57 57 58 57 57 57 56 56 56 56 56 56
56 56 56 56 57 52 57 57 56 56 54 54 55 55 53 56 57 56 57 58 59 59 59 58 57 56 56 57 58 57 57 57 57 58 58 57 57 57 57 56 55 55 55
59 57 55 56 56 56 57 57 57 51 54 54 54 55 55 56 58 58 58 58 58 58 59 59 58 58 58 58 57 57 57 57 57 57 58 57 57 55 56 56 55 54 53
60 60 59 57 56 57 57 57 58 57 56 55 56 55 55 55 55 56 57 58 58 58 58 58 58 59 59 59 58 58 53 41 53 49 56 57 56 56 54 53 53 54 55
51 53 56 57 58 55 55 55 55 56 55 55 56 56 56 55 54 55 55 55 56 56 57 57 58 59 59 59 59 52 42 40 48 41 55 56 56 55 55 55 55 55 55
Lifted_Index
-2 -2 -1 -1 -1 -1 -1 -1 -1 -1 -1 -1 -1 -1 -1 -1 -1 -1 -1 -1 -1 -0 0 0 -0 -1 -1 -1 -0 -1 -1 -1 -0 -0 -0 0 -0 -1 -1 -1 -1 -1 -1
-2 -1 -1 -1 -1 -1 -1 -1 -1 -1 -1 -1 -1 -1 -1 -1 -1 -1 -1 -1 -0 0 1 1 0 -0 -1 -1 -0 -1 -1 -1 -1 0 0 0 -0 -1 -1 -1 -1 -1 -1
-1 -1 -1 -1 -1 -1 -1 -1 -0 -0 -0 -1 -1 -1 -1 -1 -1 -1 -1 -1 -0 1 1 2 1 0 -0 -0 -0 -1 -1 -1 -0 0 1 0 0 -0 -0 -0 -1 -0 0
-1 -1 -1 -1 -1 -1 -0 -0 0 -0 -0 -1 -1 -1 -1 -1 -1 -1 -1 -1 0 1 1 1 1 0 -0 -0 -1 -1 -1 -1 0 0 0 0 0 0 0 0 0 1 1
-0 -0 -0 -0 -0 -0 -0 0 0 0 -0 -1 -1 -0 -0 0 0 -0 -1 -1 0 1 1 1 1 0 -0 -0 -1 -1 -1 -0 0 1 1 1 1 1 1 1 1 1 2
0 0 0 -0 -0 0 0 0 0 0 -0 -0 -0 -0 0 1 1 0 -0 -1 -0 1 1 1 1 0 0 -0 -0 -0 0 0 1 1 1 1 1 1 1 1 2 2 2
0 0 0 0 0 0 0 0 0 -0 -0 -0 -0 0 1 1 1 0 -0 -0 -0 1 1 1 1 1 1 0 0 0 1 1 1 1 1 1 2 2 2 2 2 2 2
0 0 0 0 0 0 0 0 -0 -0 -0 0 0 0 1 1 0 -0 -0 0 0 1 1 1 1 1 1 1 1 1 1 1 1 1 2 2 2 2 2 2 3 3 3
0 0 0 -0 -0 0 0 -0 -0 -0 0 1 0 0 0 0 -0 -0 -0 0 1 1 1 1 1 1 1 1 1 1 1 1 1 1 2 2 2 2 3 3 3 3 3
-0 -0 -0 -0 -0 -0 -0 -0 0 0 1 1 1 1 0 0 0 0 0 1 1 1 1 1 1 1 1 1 1 1 1 1 2 2 2 2 2 3 3 3 3 3 3
-0 -0 -1 -1 -1 -0 -0 0 0 1 1 1 1 1 1 0 1 1 1 1 2 2 2 1 1 1 2 2 2 2 2 2 2 2 2 2 3 3 4 4 3 3 3
-1 -1 -1 -1 -1 -0 -0 0 1 1 1 2 2 2 1 1 1 1 1 2 2 2 2 2 2 2 2 2 3 3 3 3 3 2 2 3 3 3 4 4 4 4 4
-1 -1 -1 -1 -1 -1 -0 0 0 1 1 1 2 2 2 1 1 1 2 2 3 3 3 3 3 3 3 3 3 3 3 3 3 2 2 3 3 3 3 3 4 4 4
-1 -1 -1 -2 -2 -1 -1 -0 0 1 1 1 1 1 2 2 2 2 2 3 3 3 3 3 4 4 4 4 4 4 3 3 3 3 3 3 3 3 3 3 4 4 5
-1 -1 -2 -2 -2 -1 -1 -0 0 1 1 1 1 1 2 2 2 2 3 3 3 3 3 3 4 4 4 4 4 4 4 3 3 3 3 3 3 3 3 4 4 5 5
-1 -1 -2 -2 -2 -1 -0 0 0 1 1 1 1 1 1 2 2 3 3 3 3 3 3 3 4 4 4 4 4 4 4 3 3 3 3 3 3 3 3 4 5 5 5
-1 -1 -2 -2 -2 -1 -1 -0 -0 0 0 0 1 1 1 2 2 2 3 3 3 3 3 3 3 4 4 4 4 3 3 3 3 3 3 3 3 3 3 4 4 5 5
-1 -1 -2 -2 -2 -2 -1 -1 -1 -1 -1 -1 -0 1 1 2 2 2 2 3 3 3 2 2 3 3 3 3 3 3 3 3 2 2 2 2 2 3 3 3 3 3 3
-1 -1 -2 -2 -2 -2 -1 -1 -1 -1 -1 -1 -1 0 1 2 2 2 2 3 3 2 2 2 2 2 3 3 3 3 2 2 2 2 2 2 2 3 3 3 3 2 2
-1 -1 -1 -2 -2 -2 -2 -1 -1 -1 -1 -1 -1 -0 1 1 2 2 2 2 2 2 2 2 2 2 2 2 2 2 2 2 2 2 2 2 2 2 3 2 2 2 2
-1 -1 -1 -2 -2 -2 -2 -2 -1 -1 -1 -1 -1 -0 1 1 1 1 1 1 1 1 1 2 2 2 2 2 2 2 2 2 2 2 1 1 2 2 2 2 1 1 1
-1 -1 -1 -2 -2 -2 -2 -2 -2 -1 -1 -1 -1 -0 0 0 0 1 1 1 1 1 1 1 1 1 1 2 2 2 2 2 2 1 1 1 1 1 1 1 1 1 1
-1 -1 -1 -1 -2 -2 -2 -2 -2 -1 -1 -1 -1 -0 -0 -0 -0 -0 0 0 0 0 0 0 1 1 1 1 1 1 1 1 1 1 1 1 1 1 1 0 0 0 0
-1 -1 -1 -1 -1 -1 -1 -1 -1 -1 -1 -0 -0 0 0 -0 -0 -1 -0 -0 -0 -0 -0 0 0 0 0 1 1 1 1 1 1 1 1 1 1 1 1 1 1 1 1
-1 -1 -1 -1 -1 -1 -1 -1 -1 -1 -1 -0 -0 0 0 -0 -0 -0 -0 -0 -0 -0 -0 -0 0 0 0 0 1 1 1 2 2 2 1 1 1 1 1 1 1 1 1
-1 -1 -1 -1 -1 -1 -1 -1 -1 -1 -0 -0 -0 -0 -0 -0 0 0 0 -0 -0 -0 -0 -0 0 0 0 0 0 1 1 2 2 2 2 2 1 1 1 2 1 1 1